Regional Weather Roundup
Issued by NWS Charleston, SC

Current Version | Previous Version | Graphics & Text | Print | Product List | Glossary On
Versions: 1 2 3 4 5 6 7 8 9 10 11 12 13 14 15 16 17 18 19 20 21 22 23 24 25 26 27 28 29 30 31 32 33 34 35 36 37 38 39 40 41 42 43 44 45 46 47 48 49 50
432 ASUS42 KCHS 250346 RWRCHS REGIONAL WEATHER ROUNDUP NATIONAL WEATHER SERVICE CHARLESTON SC 1100 PM EDT SUN SEP 24 2017 NOTE: "FAIR" INDICATES FEW OR NO CLOUDS BELOW 12,000 FEET WITH NO SIGNIFICANT WEATHER AND/OR OBSTRUCTIONS TO VISIBILITY. NOT ALL STATIONS ARE QUALITY CONTROLLED. USE DATA WITH CAUTION... ESPECIALLY DEWPOINT OBSERVATIONS. SCZ027-030-031-034>040-042>050-250400- ...SOUTHEAST SOUTH CAROLINA... CITY SKY/WX TMP DP RH WIND PRES REMARKS N CHARLESTON CLOUDY 74 70 87 NE5 29.94S WATERFRONT PRK N/A 78 73 84 VRB3 29.78F JOHNS ISLAND FAIR 75 72 88 CALM 29.93F PINOPOLIS N/A 79 72 78 NE8 29.88F MONCKS CORNER FAIR 73 68 83 NE5 29.94F SUMMERVILLE FAIR 72 70 94 CALM 29.95F BEAUFORT MCAS CLOUDY 76 73 91 N3 29.94F BEAUFORT ARPT FAIR 75 72 88 N3 29.94S HILTON HEAD IS MOCLDY 77 73 88 CALM 29.95S WALTERBORO CLOUDY 70 68 94 CALM 29.96S ALLENDALE NOT AVBL ...SOUTHERN MIDLANDS AND PEE DEE... CITY SKY/WX TMP DP RH WIND PRES REMARKS GEORGETOWN FAIR 73 72 94 N6 29.95F KINGSTREE FAIR 68 66 94 CALM 29.96S ORANGEBURG CLOUDY 73 68 84 CALM 29.97S BARNWELL FAIR 73 70 88 CALM 29.97F AIKEN FAIR 72 64 78 CALM 30.03S MANNING FAIR 70 54 56 MISG 29.96F COLUMBIA PTCLDY 78 67 68 N5 29.97F SUMTER PTCLDY 71 66 83 NE6 29.95F FLORENCE PTCLDY 72 68 87 N7 29.97F MYRTLE BEACH CLOUDY 75 69 81 N7 29.96S N MYRTLE BEACH CLOUDY 75 69 81 N6 29.94S $$ GAZ063-065-086>088-099>101-113>116-118-119-134>141-150-250400- ...SOUTHEAST GEORGIA... CITY SKY/WX TMP DP RH WIND PRES REMARKS SAVANNAH ARPT CLOUDY 75 69 81 CALM 29.95F HUNTER AAF CLOUDY 77 69 78 CALM 29.92F FORT STEWART CLOUDY 72 68 87 CALM 29.93S STATESBORO CLOUDY 72 67 83 CALM 29.96F SYLVANIA CLOUDY 72 71 97 CALM 29.98S CLAXTON FAIR 71 70 95 CALM 29.96F ...CSRA...CENTRAL AND FAR SOUTHEAST GEORGIA... CITY SKY/WX TMP DP RH WIND PRES REMARKS THOMSON MOCLDY 69 67 93 CALM 30.04F AUGUSTA-BUSH PTCLDY 73 68 84 CALM 29.97F AUGUSTA-DANIEL CLOUDY 77 67 71 N6 30.00S SWAINSBORO FAIR 70 70 100 CALM 29.98F VIDALIA MOCLDY 73 68 83 CALM 29.97S EASTMAN FAIR 70 69 96 CALM 30.00R HAZLEHURST FAIR 74 63 66 CALM 29.95F ALMA CLEAR 71 68 90 CALM 29.95S WAYCROSS CLEAR 74 71 90 CALM 29.95S JESUP NOT AVBL BAXLEY FAIR 72 70 94 CALM 29.95F BRUNSWICK CLOUDY 73 68 83 N3 29.94F SAINT SIMONS PTCLDY 78 71 79 NE6 29.94S $$ SCZ027-028-034-036>038-045-046-048>050-GAZ119-141-250400- ...LAKE AND SUPPLEMENTAL COASTAL OBSERVATIONS... STATION/POSITION TIME TEMP WIND PRES WAVE SWELL AIR SEA DIR/SP/G HT/PER HT/PER/DIR (UTC) (F) (DEG/KT/KT) (MB) (FT/S) (FT/S/D) WINYAH BAY 0245 76 350/ 6 1014.0S LAKE MURRAY 0320 76 30/ 2/ 4 1014.6 ACE BASIN NERRS 0245 73 CALM 1014.0S FORT PULASKI 0300 78 81 40/ 5/ 6 1014.3 SAPELO ISLAND 0300 76 CALM 1014.0 $$ ANZ835-935-AMZ111-154-330-350-352-354-370-450-454-472-250400- ...C-MAN AND BUOY OBSERVATIONS... STATION/POSITION TIME TEMP WIND PRES WAVE SWELL AIR SEA DIR/SP/G HT/PER HT/PER/DIR (UTC) (F) (DEG/KT/KT) (MB) (FT/S) (FT/S/D) BUOY 41004 0310 80 81 30/ 17/ 21 1012.1 BUOY 41008 0250 80 80 50/ 14/ 16 1013.1F 6/15 5/100/15 FOLLY BEACH CMAN 0300 78 20/ 8/ 9 1014.1F CAPERS NEARSHORE 0308 76 80 30/ 12/ 16 1013.0F FRIPP NEARSHORE 0308 79 30/ 8/ 12 1019.2F STATION/POSITION TIME TEMP WIND PRES WAVE SWELL AIR SEA DIR/SP/G HT/PER HT/PER/DIR (UTC) (F) (DEG/KT/KT) (MB) (FT/S) (FT/S/D) 5E ST. MARYS GA 0230 81 N/A 7/14 3/100/14 FRYING PAN BUOY 0310 79 82 30/ 21/ 27 1012.1 BUOY 41025 0250 75 81 30/ 21/ 27 1012.8F 10/15 8/150/15 CAPE LOOKOUT NC 0300 75 30/ 19/ 27 1013.1F BUOY 41002 0250 80 80 20/ 31/ 39 1002.3F 20/14 11/130/14 BUOY 41010 0310 10/ 14/ 19 1010.4 ST AUGUSTINE FL 0300 80 82 20/ 14/ 16 1013.2F $$

USA.gov is the U.S. government's official web portal to all federal, state and local government web resources and services.